TimeCST,TemperatureF,Dew PointF,Humidity,Sea Level PressureIn,VisibilityMPH,Wind Direction,Wind SpeedMPH,Gust SpeedMPH,PrecipitationIn,Events,Conditions,WindDirDegrees,DateUTC
12:53 AM,19.0,15.1,85,30.36,10.0,SE,6.9,-,N/A,,Clear,140,2013-03-08 06:53:00
1:53 AM,17.1,12.9,84,30.35,10.0,SE,5.8,-,N/A,,Clear,130,2013-03-08 07:53:00
2:53 AM,18.0,15.1,88,30.33,10.0,SE,5.8,-,N/A,,Mostly Cloudy,140,2013-03-08 08:53:00
3:53 AM,18.0,14.0,84,30.31,10.0,SE,3.5,-,N/A,,Clear,140,2013-03-08 09:53:00
4:53 AM,19.0,12.9,77,30.30,10.0,South,4.6,-,N/A,,Clear,170,2013-03-08 10:53:00
5:35 AM,17.6,12.2,79,30.23,10.0,SSE,3.5,-,N/A,,Mostly Cloudy,160,2013-03-08 11:35:00
5:53 AM,19.0,14.0,81,30.31,10.0,Calm,Calm,-,N/A,,Overcast,0,2013-03-08 11:53:00
6:53 AM,19.9,14.0,78,30.32,10.0,South,4.6,-,N/A,,Overcast,180,2013-03-08 12:53:00
7:53 AM,21.9,15.1,75,30.31,10.0,South,5.8,-,N/A,,Overcast,170,2013-03-08 13:53:00
8:53 AM,23.0,16.0,74,30.31,9.0,Variable,5.8,-,N/A,,Overcast,0,2013-03-08 14:53:00
9:53 AM,24.1,17.1,75,30.30,-9999.0,South,6.9,-,N/A,,Overcast,180,2013-03-08 15:53:00
10:41 AM,24.8,17.6,74,30.23,-9999.0,SSW,6.9,-,N/A,,Overcast,200,2013-03-08 16:41:00
10:53 AM,26.1,18.0,71,30.31,-9999.0,North,-9999.0,-,N/A,,Overcast,0,2013-03-08 16:53:00
11:48 AM,26.6,19.4,74,30.22,8.0,Variable,3.5,-,N/A,,Overcast,0,2013-03-08 17:48:00
11:53 AM,28.0,19.0,69,30.30,8.0,SSE,4.6,-,N/A,,Overcast,150,2013-03-08 17:53:00
12:53 PM,28.0,19.0,69,30.28,7.0,SSE,4.6,-,N/A,,Overcast,150,2013-03-08 18:53:00
1:53 PM,30.0,19.9,66,30.27,8.0,Calm,Calm,-,N/A,,Overcast,0,2013-03-08 19:53:00
2:53 PM,30.9,21.9,69,30.26,7.0,Calm,Calm,-,N/A,,Overcast,0,2013-03-08 20:53:00
3:53 PM,33.1,21.9,64,30.26,7.0,Calm,Calm,-,N/A,,Overcast,0,2013-03-08 21:53:00
4:53 PM,34.0,24.1,67,30.26,8.0,Variable,4.6,-,N/A,,Mostly Cloudy,0,2013-03-08 22:53:00
5:01 PM,33.8,24.8,70,30.18,8.0,Calm,Calm,-,N/A,,Partly Cloudy,0,2013-03-08 23:01:00
5:53 PM,33.1,24.1,70,30.25,7.0,Calm,Calm,-,N/A,,Partly Cloudy,0,2013-03-08 23:53:00
6:53 PM,30.0,24.1,79,30.24,8.0,Calm,Calm,-,N/A,,Mostly Cloudy,0,2013-03-09 00:53:00
7:53 PM,28.0,23.0,81,30.22,7.0,Calm,Calm,-,N/A,,Overcast,0,2013-03-09 01:53:00
8:53 PM,28.0,21.9,78,30.20,7.0,East,3.5,-,N/A,,Partly Cloudy,100,2013-03-09 02:53:00
9:53 PM,25.0,19.9,81,30.21,7.0,Calm,Calm,-,N/A,,Clear,0,2013-03-09 03:53:00
10:53 PM,25.0,21.0,85,30.18,7.0,ESE,4.6,-,N/A,,Clear,120,2013-03-09 04:53:00
11:53 PM,24.1,19.0,81,30.15,6.0,SE,3.5,-,N/A,,Haze,130,2013-03-09 05:53:00